GW0579 Weather Reports


Display with metric or nautical units.
time (UTC)temp
F
wind
direction
speed
MPH
gust
MPH
rain 1hr
in
rain 24hr
in
rain mn
in
humidity
%
barometer
mb
20260505080011 51 315 0.0 0.0 0.00 0.00 0.00 92 1013.4
20260505074006 52 315 0.0 0.0 0.00 0.00 0.00 90 1013.3
20260505073006 52 315 0.0 0.0 0.00 0.00 0.00 90 1013.1
20260505072007 52 315 0.0 0.0 0.00 0.00 0.00 89 1013.2
20260505071006 52 315 0.0 0.0 0.00 0.00 0.00 89 1013.0
20260505070011 53 315 0.0 0.0 0.00 0.00 0.00 89 1012.7
20260505065008 53 315 0.0 0.0 0.00 0.00 0.00 89 1012.6
20260505064007 53 315 0.0 1.0 0.00 0.00 0.00 88 1012.6
20260505062006 53 315 0.0 0.0 0.00 0.00 0.00 87 1012.3
20260505061007 54 315 0.0 1.0 0.00 0.00 0.00 86 1012.2
20260505060007 54 315 0.0 0.0 0.00 0.00 0.00 86 1012.3
20260505055006 54 315 0.0 0.0 0.00 0.00 0.00 85 1012.2
20260505054007 55 315 0.0 1.0 0.00 0.00 0.00 84 1012.1
20260505053005 55 315 0.0 0.0 0.00 0.00 0.00 84 1012.2
20260505051006 56 315 0.0 1.0 0.00 0.00 0.00 83 1012.1
20260505041005 59 300 1.0 3.0 0.00 0.00 0.00 77 1011.5
20260505040008 59 20 1.0 5.0 0.00 0.00 0.00 76 1011.4
20260505035006 60 316 1.0 3.0 0.00 0.00 0.00 75 1011.3
20260505034006 61 5 2.0 8.0 0.00 0.00 0.00 74 1011.2
20260505033005 61 291 2.0 6.0 0.00 0.00 0.00 73 1011.0
20260505032006 62 290 3.0 7.0 0.00 0.00 0.00 71 1010.8
20260505031005 63 329 2.0 8.0 0.00 0.00 0.00 70 1010.8
20260505030008 64 276 3.0 9.0 0.00 0.00 0.00 68 1010.7
20260505025005 65 342 2.0 8.0 0.00 0.00 0.00 67 1010.4
20260505024005 66 289 1.0 2.0 0.00 0.00 0.00 67 1010.2
20260505022006 68 244 3.0 9.0 0.00 0.00 0.00 61 1010.2
20260505021005 69 310 2.0 8.0 0.00 0.00 0.00 60 1010.1
20260505020009 71 306 3.0 8.0 0.00 0.00 0.00 57 1010.0
20260505014005 72 321 3.0 5.0 0.00 0.00 0.00 55 1010.1
20260505013005 73 331 4.0 14.0 0.00 0.00 0.00 54 1010.0
20260505012006 74 5 3.0 9.0 0.00 0.00 0.00 55 1010.0
20260505011005 75 303 2.0 4.0 0.00 0.00 0.00 53 1009.9
20260505010008 75 26 3.0 14.0 0.00 0.00 0.00 53 1010.0
20260505005005 76 253 4.0 11.0 0.00 0.00 0.00 51 1009.8
20260505004005 76 325 3.0 9.0 0.00 0.00 0.00 51 1009.8
20260505003005 77 264 3.0 11.0 0.00 0.00 0.00 50 1009.8
20260505002006 78 5 4.0 11.0 0.00 0.00 0.00 49 1009.8
20260505000008 80 348 2.0 8.0 0.00 0.00 0.00 47 1009.6
20260504234006 81 300 2.0 9.0 0.00 0.00 0.00 46 1009.7
20260504233005 81 337 3.0 10.0 0.00 0.00 0.00 47 1009.8
20260504232006 81 304 3.0 10.0 0.00 0.00 0.00 47 1009.8
20260504231005 81 325 3.0 10.0 0.00 0.00 0.00 46 1009.9
20260504230008 81 268 3.0 10.0 0.00 0.00 0.00 47 1009.8
20260504225007 81 329 3.0 9.0 0.00 0.00 0.00 48 1010.1
20260504223005 80 268 3.0 8.0 0.00 0.00 0.00 49 1010.3
20260504222006 80 277 2.0 10.0 0.00 0.00 0.00 51 1010.4
20260504221005 80 340 3.0 8.0 0.00 0.00 0.00 51 1010.3
20260504220006 80 323 3.0 10.0 0.00 0.00 0.00 50 1010.3
20260504215005 80 360 3.0 10.0 0.00 0.00 0.00 52 1010.3
20260504214004 80 333 3.0 8.0 0.00 0.00 0.00 51 1010.5
20260504213005 80 15 3.0 8.0 0.00 0.00 0.00 50 1010.6
20260504212004 80 5 3.0 6.0 0.00 0.00 0.00 54 1010.6
20260504211004 79 305 2.0 6.0 0.00 0.00 0.00 53 1010.7
20260504210006 79 27 3.0 8.0 0.00 0.00 0.00 52 1010.7
20260504205004 79 15 2.0 7.0 0.00 0.00 0.00 53 1010.8
20260504204004 78 231 3.0 6.0 0.00 0.00 0.00 54 1010.9
20260504203004 78 318 2.0 5.0 0.00 0.00 0.00 59 1011.1
20260504202005 77 319 3.0 8.0 0.00 0.00 0.00 56 1011.1
20260504201005 77 289 2.0 7.0 0.00 0.00 0.00 55 1011.2
20260504200007 77 272 1.0 3.0 0.00 0.00 0.00 57 1011.1
20260504195004 76 343 2.0 6.0 0.00 0.00 0.00 56 1011.1
20260504194004 76 330 1.0 4.0 0.00 0.00 0.00 59 1011.3
20260504193005 75 311 2.0 7.0 0.00 0.00 0.00 57 1011.3
20260504192005 75 340 2.0 5.0 0.00 0.00 0.00 58 1011.5
20260504191004 75 27 2.0 5.0 0.00 0.00 0.00 58 1011.6
20260504190008 75 102 1.0 3.0 0.00 0.00 0.00 58 1011.6
20260504185005 74 113 2.0 4.0 0.00 0.00 0.00 58 1011.7
20260504184006 75 24 1.0 3.0 0.00 0.00 0.00 59 1011.8
20260504183004 74 36 1.0 3.0 0.00 0.00 0.00 61 1011.6
20260504182004 73 36 1.0 3.0 0.00 0.00 0.00 60 1011.7
20260504181004 73 38 2.0 5.0 0.00 0.00 0.00 60 1011.8
20260504180007 72 233 1.0 5.0 0.00 0.00 0.00 61 1011.8
20260504175005 71 107 1.0 6.0 0.00 0.00 0.00 63 1011.8
20260504173005 70 36 1.0 4.0 0.00 0.00 0.00 64 1011.8
20260504172004 70 96 2.0 4.0 0.00 0.00 0.00 64 1011.8
20260504171004 69 94 1.0 4.0 0.00 0.00 0.00 63 1011.7
20260504151005 55 111 0.0 1.0 0.00 0.00 0.00 87 1011.1
20260504141004 51 111 0.0 0.0 0.00 0.00 0.00 93 1010.8
20260504082004 56 111 0.0 1.0 0.00 0.00 0.00 80 1009.5
20260504081003 56 111 0.0 1.0 0.00 0.00 0.00 79 1009.4